Time,TemperatureF,DewpointF,PressureIn,WindDirection,WindDirectionDegrees,WindSpeedMPH,WindSpeedGustMPH,Humidity,HourlyPrecipIn,Conditions,Clouds,dailyrainin,SoftwareType,DateUTC
2013-07-26 00:02:00,73.8,73.0,30.00,NE,41,0.0,1.0,97,0.00,,,0.00,weatherlink.com 1.10,2013-07-26 04:02:00,
2013-07-26 00:17:00,73.5,73.0,30.00,NE,40,0.0,1.0,97,0.00,,,0.00,weatherlink.com 1.10,2013-07-26 04:17:00,
2013-07-26 00:32:00,73.2,72.0,30.00,ESE,122,0.0,0.0,97,0.00,,,0.00,weatherlink.com 1.10,2013-07-26 04:32:00,
2013-07-26 00:48:00,72.8,72.0,30.00,ESE,122,0.0,0.0,97,0.00,,,0.00,weatherlink.com 1.10,2013-07-26 04:48:00,
2013-07-26 01:02:00,72.6,72.0,30.00,ESE,122,0.0,0.0,97,0.00,,,0.00,weatherlink.com 1.10,2013-07-26 05:02:00,
2013-07-26 01:17:00,72.3,72.0,30.00,ESE,122,0.0,1.0,98,0.00,,,0.00,weatherlink.com 1.10,2013-07-26 05:17:00,
2013-07-26 01:32:00,72.1,72.0,30.00,ESE,122,0.0,0.0,98,0.00,,,0.00,weatherlink.com 1.10,2013-07-26 05:32:00,
2013-07-26 01:47:00,71.8,71.0,29.99,ESE,122,0.0,0.0,98,0.00,,,0.00,weatherlink.com 1.10,2013-07-26 05:47:00,
2013-07-26 02:03:00,71.8,71.0,30.00,ESE,122,0.0,0.0,98,0.00,,,0.00,weatherlink.com 1.10,2013-07-26 06:03:00,
2013-07-26 02:18:00,71.7,71.0,30.00,ESE,122,0.0,1.0,98,0.00,,,0.00,weatherlink.com 1.10,2013-07-26 06:18:00,
2013-07-26 02:33:00,71.4,71.0,29.99,ESE,122,0.0,1.0,98,0.00,,,0.00,weatherlink.com 1.10,2013-07-26 06:33:00,
2013-07-26 02:48:00,71.3,71.0,29.99,ESE,122,0.0,0.0,98,0.00,,,0.00,weatherlink.com 1.10,2013-07-26 06:48:00,
2013-07-26 03:03:00,71.3,71.0,29.99,NW,311,0.0,2.0,98,0.00,,,0.00,weatherlink.com 1.10,2013-07-26 07:03:00,
2013-07-26 03:18:00,71.1,71.0,30.00,NW,311,0.0,1.0,98,0.00,,,0.00,weatherlink.com 1.10,2013-07-26 07:18:00,
2013-07-26 03:33:00,70.9,70.0,30.00,NW,311,0.0,0.0,98,0.00,,,0.00,weatherlink.com 1.10,2013-07-26 07:33:00,
2013-07-26 03:48:00,70.9,70.0,30.00,NW,310,0.0,1.0,98,0.00,,,0.00,weatherlink.com 1.10,2013-07-26 07:48:00,
2013-07-26 04:03:00,70.7,70.0,30.00,NW,311,0.0,0.0,98,0.00,,,0.00,weatherlink.com 1.10,2013-07-26 08:03:00,
2013-07-26 04:18:00,70.5,70.0,30.00,NW,311,0.0,1.0,98,0.00,,,0.00,weatherlink.com 1.10,2013-07-26 08:18:00,
2013-07-26 04:33:00,70.4,70.0,30.01,NW,309,0.0,1.0,99,0.00,,,0.00,weatherlink.com 1.10,2013-07-26 08:33:00,
2013-07-26 04:48:00,70.3,70.0,30.01,NW,309,0.0,0.0,99,0.00,,,0.00,weatherlink.com 1.10,2013-07-26 08:48:00,
2013-07-26 05:03:00,70.3,70.0,30.01,ESE,121,0.0,0.0,99,0.00,,,0.00,weatherlink.com 1.10,2013-07-26 09:03:00,
2013-07-26 05:18:00,70.1,70.0,30.01,SSW,198,0.0,1.0,99,0.00,,,0.00,weatherlink.com 1.10,2013-07-26 09:18:00,
2013-07-26 05:33:00,70.2,70.0,30.02,SSW,198,0.0,0.0,99,0.00,,,0.00,weatherlink.com 1.10,2013-07-26 09:33:00,
2013-07-26 05:48:00,70.4,70.0,30.02,West,259,0.0,1.0,99,0.00,,,0.00,weatherlink.com 1.10,2013-07-26 09:48:00,
2013-07-26 06:03:00,71.0,71.0,30.02,ESE,109,0.0,1.0,99,0.00,,,0.00,weatherlink.com 1.10,2013-07-26 10:03:00,
2013-07-26 06:18:00,72.0,72.0,30.03,ENE,74,0.0,5.0,99,0.00,,,0.00,weatherlink.com 1.10,2013-07-26 10:18:00,
2013-07-26 06:33:00,72.6,72.0,30.03,ESE,117,0.0,4.0,99,0.00,,,0.00,weatherlink.com 1.10,2013-07-26 10:33:00,
2013-07-26 06:48:00,73.2,73.0,30.04,ESE,103,0.0,4.0,99,0.00,,,0.00,weatherlink.com 1.10,2013-07-26 10:48:00,
2013-07-26 07:03:00,74.0,74.0,30.04,East,95,2.0,6.0,99,0.00,,,0.00,weatherlink.com 1.10,2013-07-26 11:03:00,
2013-07-26 07:18:00,74.6,74.0,30.04,East,95,4.0,6.0,98,0.00,,,0.00,weatherlink.com 1.10,2013-07-26 11:18:00,
2013-07-26 07:33:00,75.2,74.0,30.04,East,81,0.0,6.0,97,0.00,,,0.00,weatherlink.com 1.10,2013-07-26 11:33:00,
2013-07-26 07:48:00,75.7,74.0,30.05,East,84,1.0,6.0,95,0.00,,,0.00,weatherlink.com 1.10,2013-07-26 11:48:00,
2013-07-26 08:03:00,76.1,75.0,30.06,East,98,3.0,4.0,95,0.00,,,0.00,weatherlink.com 1.10,2013-07-26 12:03:00,
2013-07-26 08:18:00,76.6,75.0,30.06,East,81,2.0,6.0,95,0.00,,,0.00,weatherlink.com 1.10,2013-07-26 12:18:00,
2013-07-26 08:33:00,76.6,74.0,30.07,NE,54,2.0,7.0,91,0.00,,,0.00,weatherlink.com 1.10,2013-07-26 12:33:00,
2013-07-26 08:48:00,76.8,74.0,30.07,ENE,75,2.0,6.0,91,0.00,,,0.00,weatherlink.com 1.10,2013-07-26 12:48:00,
2013-07-26 09:03:00,77.2,75.0,30.07,East,80,1.0,5.0,91,0.00,,,0.00,weatherlink.com 1.10,2013-07-26 13:03:00,
2013-07-26 09:18:00,78.1,75.0,30.07,ESE,103,7.0,9.0,90,0.00,,,0.00,weatherlink.com 1.10,2013-07-26 13:18:00,
2013-07-26 09:34:00,78.0,75.0,30.07,East,79,1.0,9.0,89,0.00,,,0.00,weatherlink.com 1.10,2013-07-26 13:34:00,
2013-07-26 09:48:00,78.2,75.0,30.07,ESE,102,4.0,6.0,90,0.00,,,0.00,weatherlink.com 1.10,2013-07-26 13:48:00,
2013-07-26 10:04:00,78.4,75.0,30.08,East,89,1.0,10.0,89,0.00,,,0.00,weatherlink.com 1.10,2013-07-26 14:04:00,
2013-07-26 10:18:00,78.8,75.0,30.08,ESE,102,6.0,12.0,88,0.00,,,0.00,weatherlink.com 1.10,2013-07-26 14:18:00,
2013-07-26 10:33:00,78.7,75.0,30.08,ESE,108,10.0,10.0,88,0.00,,,0.00,weatherlink.com 1.10,2013-07-26 14:33:00,
2013-07-26 10:48:00,79.1,76.0,30.08,ENE,75,6.0,11.0,89,0.00,,,0.00,weatherlink.com 1.10,2013-07-26 14:48:00,
2013-07-26 11:04:00,79.9,76.0,30.08,NW,313,5.0,11.0,87,0.00,,,0.00,weatherlink.com 1.10,2013-07-26 15:04:00,
2013-07-26 11:19:00,79.6,75.0,30.09,East,92,8.0,11.0,86,0.00,,,0.00,weatherlink.com 1.10,2013-07-26 15:19:00,
2013-07-26 11:34:00,80.2,76.0,30.09,NE,43,0.0,8.0,87,0.00,,,0.00,weatherlink.com 1.10,2013-07-26 15:34:00,
2013-07-26 11:49:00,79.9,76.0,30.09,NE,44,1.0,11.0,87,0.00,,,0.00,weatherlink.com 1.10,2013-07-26 15:49:00,
2013-07-26 12:04:00,80.1,75.0,30.09,East,98,10.0,11.0,85,0.00,,,0.00,weatherlink.com 1.10,2013-07-26 16:04:00,
2013-07-26 12:19:00,80.9,76.0,30.09,ENE,69,2.0,11.0,84,0.00,,,0.00,weatherlink.com 1.10,2013-07-26 16:19:00,
2013-07-26 12:34:00,82.2,77.0,30.09,North,352,2.0,8.0,83,0.00,,,0.00,weatherlink.com 1.10,2013-07-26 16:34:00,
2013-07-26 12:49:00,81.4,76.0,30.09,ESE,102,3.0,10.0,84,0.00,,,0.00,weatherlink.com 1.10,2013-07-26 16:49:00,
2013-07-26 13:04:00,81.2,76.0,30.09,ENE,72,6.0,9.0,85,0.00,,,0.00,weatherlink.com 1.10,2013-07-26 17:04:00,
2013-07-26 13:19:00,82.0,77.0,30.08,ESE,118,6.0,7.0,84,0.00,,,0.00,weatherlink.com 1.10,2013-07-26 17:19:00,
2013-07-26 13:35:00,81.5,77.0,30.08,East,92,5.0,10.0,85,0.00,,,0.00,weatherlink.com 1.10,2013-07-26 17:35:00,
2013-07-26 13:49:00,82.1,77.0,30.07,East,91,7.0,11.0,83,0.00,,,0.00,weatherlink.com 1.10,2013-07-26 17:49:00,
2013-07-26 14:04:00,82.4,77.0,30.08,ESE,107,1.0,10.0,83,0.00,,,0.00,weatherlink.com 1.10,2013-07-26 18:04:00,
2013-07-26 14:19:00,83.2,77.0,30.07,East,87,10.0,11.0,82,0.00,,,0.00,weatherlink.com 1.10,2013-07-26 18:19:00,
2013-07-26 14:34:00,81.0,76.0,30.07,ENE,70,4.0,11.0,85,0.00,,,0.00,weatherlink.com 1.10,2013-07-26 18:34:00,
2013-07-26 14:49:00,81.2,76.0,30.06,East,81,1.0,9.0,84,0.00,,,0.00,weatherlink.com 1.10,2013-07-26 18:49:00,
2013-07-26 15:04:00,81.4,77.0,30.06,NE,56,5.0,11.0,85,0.00,,,0.00,weatherlink.com 1.10,2013-07-26 19:04:00,
2013-07-26 15:19:00,81.6,76.0,30.06,East,82,7.0,8.0,84,0.00,,,0.00,weatherlink.com 1.10,2013-07-26 19:19:00,
2013-07-26 15:34:00,81.1,76.0,30.05,NE,45,2.0,10.0,85,0.00,,,0.00,weatherlink.com 1.10,2013-07-26 19:34:00,
2013-07-26 15:49:00,81.5,77.0,30.05,ENE,71,2.0,10.0,85,0.00,,,0.00,weatherlink.com 1.10,2013-07-26 19:49:00,
2013-07-26 16:04:00,81.6,76.0,30.04,ENE,59,5.0,10.0,84,0.00,,,0.00,weatherlink.com 1.10,2013-07-26 20:04:00,
2013-07-26 16:19:00,81.9,76.0,30.05,SE,125,2.0,8.0,83,0.00,,,0.00,weatherlink.com 1.10,2013-07-26 20:19:00,
2013-07-26 16:34:00,81.7,77.0,30.04,East,93,3.0,8.0,84,0.00,,,0.00,weatherlink.com 1.10,2013-07-26 20:34:00,
2013-07-26 16:49:00,81.5,77.0,30.05,East,86,5.0,7.0,85,0.00,,,0.00,weatherlink.com 1.10,2013-07-26 20:49:00,
2013-07-26 17:04:00,81.3,77.0,30.05,ENE,66,5.0,9.0,86,0.00,,,0.00,weatherlink.com 1.10,2013-07-26 21:04:00,
2013-07-26 17:19:00,80.3,76.0,30.05,East,80,2.0,9.0,85,0.00,,,0.00,weatherlink.com 1.10,2013-07-26 21:19:00,
2013-07-26 17:34:00,80.7,76.0,30.05,NE,49,2.0,8.0,85,0.00,,,0.00,weatherlink.com 1.10,2013-07-26 21:34:00,
2013-07-26 17:49:00,81.0,76.0,30.05,East,90,2.0,7.0,84,0.00,,,0.00,weatherlink.com 1.10,2013-07-26 21:49:00,
2013-07-26 18:04:00,80.4,75.0,30.05,East,83,2.0,6.0,84,0.00,,,0.00,weatherlink.com 1.10,2013-07-26 22:04:00,
2013-07-26 18:19:00,80.4,75.0,30.05,East,88,2.0,8.0,84,0.00,,,0.00,weatherlink.com 1.10,2013-07-26 22:19:00,
2013-07-26 18:34:00,80.2,75.0,30.05,NE,56,2.0,5.0,85,0.00,,,0.00,weatherlink.com 1.10,2013-07-26 22:34:00,
2013-07-26 18:49:00,79.8,75.0,30.05,NE,56,1.0,5.0,85,0.00,,,0.00,weatherlink.com 1.10,2013-07-26 22:49:00,
2013-07-26 19:04:00,79.4,75.0,30.05,East,87,2.0,4.0,86,0.00,,,0.00,weatherlink.com 1.10,2013-07-26 23:04:00,
2013-07-26 19:34:00,78.8,75.0,30.05,NE,51,3.0,3.0,88,0.00,,,0.00,weatherlink.com 1.10,2013-07-26 23:34:00,
2013-07-26 19:49:00,78.4,75.0,30.05,ESE,117,1.0,3.0,88,0.00,,,0.00,weatherlink.com 1.10,2013-07-26 23:49:00,
2013-07-26 20:04:00,77.9,75.0,30.05,ESE,105,3.0,5.0,89,0.00,,,0.00,weatherlink.com 1.10,2013-07-27 00:04:00,
2013-07-26 20:19:00,77.7,74.0,30.05,ENE,64,3.0,5.0,89,0.00,,,0.00,weatherlink.com 1.10,2013-07-27 00:19:00,
2013-07-26 20:34:00,77.6,75.0,30.04,ENE,77,2.0,4.0,90,0.00,,,0.00,weatherlink.com 1.10,2013-07-27 00:34:00,
2013-07-26 20:49:00,77.5,74.0,30.04,East,82,1.0,5.0,90,0.00,,,0.00,weatherlink.com 1.10,2013-07-27 00:49:00,
2013-07-26 21:04:00,77.5,74.0,30.04,ENE,72,2.0,6.0,90,0.00,,,0.00,weatherlink.com 1.10,2013-07-27 01:04:00,
2013-07-26 21:19:00,77.4,74.0,30.05,East,79,2.0,8.0,89,0.00,,,0.00,weatherlink.com 1.10,2013-07-27 01:19:00,
2013-07-26 21:34:00,77.3,74.0,30.05,NE,51,2.0,5.0,90,0.00,,,0.00,weatherlink.com 1.10,2013-07-27 01:34:00,
2013-07-26 21:49:00,77.0,74.0,30.05,East,84,2.0,2.0,90,0.00,,,0.00,weatherlink.com 1.10,2013-07-27 01:49:00,
2013-07-26 22:04:00,77.0,74.0,30.06,ENE,61,0.0,5.0,90,0.00,,,0.00,weatherlink.com 1.10,2013-07-27 02:04:00,
2013-07-26 22:19:00,76.9,74.0,30.06,ESE,102,1.0,3.0,90,0.00,,,0.00,weatherlink.com 1.10,2013-07-27 02:19:00,
2013-07-26 22:34:00,76.9,74.0,30.06,North,356,0.0,4.0,90,0.00,,,0.00,weatherlink.com 1.10,2013-07-27 02:34:00,
2013-07-26 22:49:00,77.0,74.0,30.06,East,98,1.0,5.0,90,0.00,,,0.00,weatherlink.com 1.10,2013-07-27 02:49:00,
2013-07-26 23:04:00,77.1,74.0,30.06,ESE,112,1.0,5.0,90,0.00,,,0.00,weatherlink.com 1.10,2013-07-27 03:04:00,
2013-07-26 23:19:00,77.0,74.0,30.06,ESE,112,0.0,5.0,90,0.00,,,0.00,weatherlink.com 1.10,2013-07-27 03:19:00,
2013-07-26 23:34:00,77.0,74.0,30.06,East,82,2.0,5.0,90,0.00,,,0.00,weatherlink.com 1.10,2013-07-27 03:34:00,
2013-07-26 23:49:00,76.9,74.0,30.06,WNW,289,2.0,3.0,89,0.00,,,0.00,weatherlink.com 1.10,2013-07-27 03:49:00,